Temperature
21 21 21 23 26 27 28 29 29 29 29 28 28 28 29 29 29 27 23 22 22 21 21 22 21 21 21 21 21 21 20 20 20 20 20 20 20 20 20 20 19 19 19 19 19 19 19 19 19
20 20 22 25 27 27 28 29 28 29 28 27 28 28 28 28 26 24 22 22 21 21 21 21 21 21 20 20 20 20 20 20 20 20 20 20 20 20 20 19 19 19 19 19 19 19 19 19 19
20 21 24 26 27 28 28 28 28 28 27 27 28 28 28 27 25 24 22 22 21 21 21 22 21 21 20 20 20 20 20 20 20 20 20 20 20 19 19 19 19 19 19 19 19 19 19 18 18
21 22 24 26 27 28 28 28 28 28 28 27 28 28 26 23 23 23 22 22 21 21 21 22 21 21 20 20 20 20 20 20 20 20 20 19 19 19 19 19 19 19 19 19 19 19 18 18 18
22 25 26 26 27 28 28 27 27 28 28 28 28 28 25 22 22 22 22 21 21 21 20 21 21 21 20 20 20 20 20 20 20 20 20 19 19 19 19 19 19 19 19 19 19 18 18 18 18
23 26 26 27 27 27 28 27 27 28 28 28 28 27 24 21 22 22 22 21 21 20 20 21 21 21 20 20 20 20 20 20 20 20 20 19 19 19 19 19 19 19 19 19 18 18 18 18 18
25 26 27 27 27 27 27 27 27 28 28 27 27 27 24 21 21 21 21 21 20 20 20 20 20 20 20 20 20 20 20 20 20 20 19 19 19 19 19 19 19 18 18 18 18 18 18 18 18
24 26 26 27 27 27 27 27 26 27 27 26 26 27 24 21 20 20 21 20 20 20 19 19 19 19 19 19 20 20 20 20 19 19 19 19 19 19 19 18 18 18 18 18 18 18 18 18 18
23 26 26 27 27 27 27 27 26 25 26 25 24 25 23 21 20 20 21 20 20 19 19 19 19 18 18 18 19 19 19 19 19 19 19 19 18 18 18 18 18 18 18 18 18 18 18 18 17
24 26 26 26 27 27 27 27 26 27 27 25 23 22 21 21 21 21 21 21 20 19 19 19 19 19 18 18 18 18 18 19 19 18 18 18 17 18 17 17 18 18 18 18 18 18 17 17 16
25 26 26 26 26 26 27 26 26 27 27 25 24 22 21 21 21 22 22 21 20 19 19 19 19 18 18 18 18 18 18 18 18 18 18 18 17 17 17 17 18 18 18 17 17 17 17 16 17
25 25 25 26 25 25 26 26 26 25 24 23 22 22 21 21 22 21 21 20 20 19 19 18 18 18 18 18 18 18 18 18 18 18 18 18 17 17 17 17 17 17 17 17 16 16 16 16 16
25 25 25 25 25 25 25 25 25 23 22 22 21 21 21 21 21 20 20 20 19 19 19 18 18 18 18 18 18 18 18 18 18 18 18 18 17 17 17 17 17 17 17 17 17 16 16 16 16
25 25 25 25 25 24 25 25 25 23 22 22 21 21 21 20 19 19 18 18 18 18 18 18 18 18 18 18 18 18 17 17 17 18 18 18 18 17 17 17 17 17 17 17 17 16 16 16 16
24 25 26 26 25 25 26 25 24 22 22 22 22 20 19 18 18 18 17 17 18 18 18 18 18 18 18 17 17 17 17 17 17 17 17 18 17 17 17 17 17 17 17 16 16 16 16 16 16
25 26 26 26 26 25 26 25 23 21 22 22 21 20 19 17 17 16 17 17 17 17 17 17 17 17 17 17 17 17 17 17 17 17 17 17 17 17 17 17 17 17 16 16 16 16 16 16 16
25 26 26 25 26 26 26 25 23 21 22 22 21 20 19 17 16 15 16 16 16 17 17 17 17 17 17 17 17 17 17 17 17 16 16 17 17 17 17 17 16 16 16 16 16 16 16 16 16
25 26 25 25 25 26 26 24 22 21 21 21 20 19 18 17 15 15 15 15 15 16 16 16 16 16 17 16 17 16 16 16 16 16 16 16 16 16 16 16 16 16 16 16 16 16 16 16 15
25 25 25 25 25 25 25 24 22 21 21 20 19 19 17 16 14 14 14 14 14 15 15 16 16 16 16 16 16 16 16 16 16 16 16 16 16 16 16 16 16 16 16 16 16 15 15 15 15
25 25 25 24 24 24 24 23 22 21 20 19 18 17 17 16 14 13 13 13 13 14 14 15 15 15 15 16 16 16 15 15 15 15 15 15 15 16 15 16 15 15 15 15 15 15 15 15 15
24 25 25 24 24 24 24 23 22 21 19 18 17 16 15 14 14 13 12 12 13 13 13 14 14 14 15 15 15 15 15 15 15 15 15 15 15 15 15 15 15 15 15 15 15 15 15 15 15
24 25 25 24 24 24 24 24 23 21 20 19 17 16 15 14 13 12 12 11 12 12 12 13 13 14 14 14 14 14 14 14 14 14 14 14 14 15 15 15 15 15 15 15 15 15 15 14 14
25 25 25 25 25 24 24 24 24 22 21 20 17 16 14 13 12 11 11 11 11 11 12 12 13 13 13 13 14 13 13 13 13 13 13 14 14 14 14 14 14 14 14 14 14 14 14 14 14
25 24 24 25 25 23 24 24 24 23 22 21 18 15 14 13 12 11 10 10 10 10 11 12 12 12 13 13 13 13 13 13 13 13 13 13 13 13 13 14 14 14 14 14 14 14 14 14 14
24 24 23 23 23 23 24 23 23 22 21 21 18 15 13 12 12 11 10 10 10 10 10 11 11 12 12 12 12 12 12 12 12 12 12 12 12 12 13 13 13 13 13 13 13 13 14 13 13
24 24 23 22 23 24 23 23 23 21 19 18 17 14 13 12 11 11 10 9 9 10 10 10 10 11 11 11 11 11 12 11 11 11 11 12 12 12 12 12 12 12 12 13 13 13 13 13 13
24 24 25 23 23 23 23 23 21 18 18 17 15 14 13 12 11 10 9 9 9 9 9 9 10 10 10 10 10 10 10 10 11 11 11 11 11 11 11 11 12 12 12 12 12 12 12 12 12
25 24 24 23 22 22 23 23 23 20 19 17 15 13 12 11 10 9 9 9 8 8 8 9 9 9 9 9 9 9 9 10 10 10 10 10 10 10 10 11 11 11 11 11 11 12 12 12 12
23 23 23 23 23 22 21 22 23 22 20 18 16 13 12 11 10 9 8 8 8 8 8 8 8 8 8 8 9 9 9 9 9 9 9 9 9 10 10 10 10 10 10 10 11 10 11 11 11
24 23 23 22 22 22 22 22 20 20 20 18 16 13 11 10 9 9 8 8 8 8 8 7 8 8 8 8 8 8 8 8 8 8 8 9 9 9 9 9 9 9 9 10 10 10 10 10 10
Wind_Speed
9 8 6 6 7 8 10 6 4 4 3 1 3 4 3 2 4 4 5 12 15 19 22 22 19 19 19 20 21 22 22 22 22 21 20 19 19 17 16 15 14 13 12 12 12 12 12 13 14
7 7 7 6 9 11 9 6 6 3 1 5 3 4 3 1 4 5 8 14 18 20 21 21 20 19 19 20 21 22 22 22 22 21 20 19 18 17 16 15 14 13 12 12 12 12 12 13 13
7 8 7 6 10 10 6 6 3 1 3 4 3 4 2 3 4 4 10 17 18 19 20 21 21 19 19 20 20 21 21 21 21 21 20 19 18 17 16 15 14 13 12 12 12 12 12 13 13
7 7 6 9 11 7 3 2 2 4 2 4 6 6 4 5 3 7 16 18 19 18 19 22 20 19 19 19 20 20 21 21 21 20 19 19 18 17 16 15 14 13 13 12 12 12 12 12 12
8 7 9 10 9 5 3 3 4 4 3 5 7 7 5 6 8 13 17 18 17 17 18 22 19 18 18 18 18 19 19 20 20 19 19 18 17 16 15 14 14 13 13 13 12 12 12 12 12
7 6 9 10 8 5 3 2 4 4 5 6 7 7 5 6 9 13 16 16 16 16 17 20 19 18 17 17 17 18 18 19 19 18 18 17 16 16 15 14 14 13 13 12 12 12 12 11 11
9 8 8 6 7 6 2 1 1 3 7 6 5 7 7 8 10 12 14 15 15 15 16 17 18 17 16 15 15 16 17 17 17 17 17 16 15 15 14 14 13 13 13 12 12 12 12 11 10
6 6 7 7 7 6 4 3 2 1 5 4 2 6 9 9 11 13 14 14 14 13 14 14 16 16 16 16 15 15 15 15 16 16 16 15 14 14 13 13 13 13 12 12 12 12 11 11 10
6 8 8 7 6 6 4 4 5 3 6 6 6 8 10 14 14 14 14 13 13 12 12 12 13 14 14 15 16 16 15 14 15 15 14 15 14 15 14 13 13 12 12 12 12 12 11 11 10
8 8 6 4 3 3 4 4 4 6 9 10 10 11 12 13 13 14 13 13 13 12 11 11 12 12 13 12 14 14 14 15 15 14 15 14 11 11 11 13 12 12 12 12 12 12 12 12 12
7 5 4 3 1 1 2 4 3 5 8 8 8 9 9 11 10 10 10 9 9 10 8 8 9 9 10 9 10 10 11 12 14 13 14 12 10 10 10 10 12 12 13 13 13 13 13 12 9
6 4 3 2 1 2 2 4 5 6 7 7 7 8 8 8 8 7 7 7 7 7 7 6 6 7 8 8 8 9 9 9 10 12 14 12 9 9 9 9 11 11 11 11 11 11 11 10 9
7 5 4 3 3 2 3 5 6 7 6 7 7 8 8 7 6 6 5 4 4 4 4 3 3 4 5 5 6 7 8 9 10 10 13 13 10 9 9 8 9 10 10 10 10 10 9 9 9
5 4 4 4 5 5 7 7 6 6 6 7 7 8 8 8 7 7 6 5 4 2 1 1 2 3 4 5 5 6 7 8 10 10 12 13 11 9 8 8 8 9 10 10 10 9 8 8 7
4 6 8 6 6 7 9 8 6 6 6 7 8 8 8 8 8 7 7 6 5 3 2 1 2 2 3 5 6 6 7 8 8 9 10 12 12 11 9 8 8 9 10 10 9 9 8 7 6
8 10 10 8 6 7 10 9 8 5 7 7 7 7 7 8 8 8 8 7 7 5 3 2 1 1 2 4 5 5 5 6 7 7 8 10 11 11 10 8 9 10 10 9 8 8 7 7 6
9 10 10 9 5 6 8 7 8 5 6 6 6 5 5 7 8 9 9 9 8 7 5 3 2 2 3 4 4 5 5 5 5 6 6 8 11 11 10 8 8 10 9 8 9 8 8 7 6
8 8 8 7 5 7 7 8 8 6 6 6 5 4 4 5 7 8 9 9 9 8 7 6 4 3 3 3 3 3 4 4 4 4 5 7 8 10 10 8 9 10 9 8 8 9 8 7 7
4 5 6 6 4 5 7 8 8 7 6 5 4 4 4 5 7 8 9 9 8 9 9 8 7 6 4 2 3 3 4 3 3 3 4 6 6 7 8 7 7 8 9 9 9 8 9 8 8
5 6 6 7 5 3 6 7 7 6 5 4 4 4 4 4 6 7 8 9 9 9 9 8 7 7 5 3 3 2 3 2 2 2 2 4 5 5 6 7 7 7 7 9 9 8 7 7 8
6 5 5 5 6 5 6 8 9 7 6 5 4 4 5 5 5 7 8 9 9 9 9 8 8 7 6 5 3 2 2 2 2 2 2 2 3 4 5 5 5 6 7 7 8 9 10 8 9
6 3 3 5 7 5 6 6 9 10 8 7 6 5 4 4 5 6 7 8 9 9 8 8 8 7 7 6 4 3 2 2 2 2 1 1 1 2 3 4 4 5 5 5 7 8 8 9 9
2 2 4 6 6 5 6 7 5 9 8 9 8 6 5 5 5 6 6 7 8 8 8 8 8 8 8 7 5 3 2 1 1 1 1 1 0 1 1 1 2 3 3 4 6 6 7 8 9
3 5 5 7 8 8 5 7 3 5 5 7 9 8 7 5 5 5 6 6 7 8 8 8 8 9 9 8 7 5 4 3 2 2 1 1 1 2 2 2 1 1 2 3 4 5 6 6 7
5 6 5 7 7 4 3 5 0 4 2 4 9 9 8 6 5 5 6 6 7 8 9 8 9 9 9 9 8 7 6 5 4 3 2 2 2 2 4 3 3 2 2 1 1 2 2 4 5
4 7 5 5 4 2 4 4 3 5 4 5 8 10 9 7 6 6 6 6 7 8 8 8 8 9 9 8 8 7 7 5 5 5 3 3 3 3 4 4 4 3 3 1 1 1 1 1 2
4 5 4 7 7 7 4 2 5 5 6 7 9 10 9 7 6 6 6 6 7 7 8 7 7 8 8 8 8 8 8 7 7 6 5 4 4 4 5 5 5 5 4 4 3 3 3 2 2
3 2 4 6 5 6 4 5 2 8 9 10 11 10 9 8 7 6 6 6 7 7 7 7 7 8 8 8 8 7 8 8 7 7 8 7 6 6 6 6 6 5 5 5 5 4 4 5 5
4 4 5 5 6 6 6 2 4 2 7 11 12 11 11 9 8 6 5 6 6 6 6 7 7 7 8 8 8 8 8 8 8 8 8 7 7 7 7 7 7 7 6 6 6 6 6 6 6
4 4 5 6 5 6 8 3 6 2 4 9 11 12 11 9 8 7 6 6 6 6 6 7 7 7 7 7 8 9 8 8 9 9 8 8 8 7 7 8 8 8 8 7 8 8 8 8 9
Wind_Direction
228 215 216 223 230 230 228 194 181 177 178 337 305 272 266 332 360 46 96 148 144 144 144 149 145 143 144 146 148 149 150 151 151 151 151 151 151 150 148 147 145 143 139 135 133 133 132 130 131
198 194 212 223 235 223 206 191 191 198 314 311 266 222 219 101 44 85 124 143 147 145 148 153 146 144 143 145 146 147 150 151 151 152 152 152 152 152 152 152 150 147 145 141 138 137 137 136 137
188 211 218 220 230 231 182 155 171 283 281 252 195 175 146 66 63 105 132 146 148 147 150 147 150 146 144 144 145 146 149 150 151 152 152 153 154 155 154 155 154 152 149 145 142 141 141 142 143
185 196 217 231 221 218 222 159 313 289 205 190 187 144 105 46 33 121 137 148 149 149 149 149 153 148 146 146 145 146 148 149 150 152 153 154 155 156 156 157 156 154 151 149 147 145 146 148 148
214 208 210 220 216 199 220 278 292 264 184 169 185 142 109 62 86 125 141 148 150 149 148 150 154 151 150 149 148 148 149 151 152 153 155 156 157 157 158 159 157 155 153 152 151 150 152 153 154
197 212 216 207 189 187 206 261 262 230 166 158 170 142 101 97 111 130 140 147 148 148 147 148 155 156 157 156 154 153 152 153 154 156 157 157 157 159 160 160 160 158 157 156 156 156 157 158 158
215 217 219 196 171 164 121 112 219 178 153 138 158 139 120 109 119 133 138 143 145 148 147 153 160 163 164 162 161 159 158 157 157 157 158 159 160 162 163 164 163 162 161 161 161 163 163 162 162
233 219 202 187 174 136 104 113 100 107 113 100 154 147 133 128 134 135 135 139 144 149 151 156 163 165 169 171 170 168 165 163 162 162 163 164 165 168 170 172 167 166 166 166 166 168 167 167 169
227 222 190 168 163 127 104 109 93 112 114 100 81 82 113 132 139 138 136 141 145 151 155 161 166 170 176 174 169 175 173 171 170 172 171 174 182 182 182 186 167 173 173 173 172 172 172 173 176
215 214 162 135 142 116 99 90 91 140 123 111 98 93 115 136 145 147 147 149 153 157 165 170 174 174 182 176 172 183 185 180 189 183 182 192 192 192 193 162 172 182 182 180 178 176 179 197 190
211 211 146 169 173 298 118 96 102 146 116 102 103 113 127 137 144 146 146 148 150 154 161 172 179 183 185 182 182 188 192 185 196 190 190 196 192 197 200 175 182 191 192 193 181 188 198 204 202
204 201 198 186 174 226 131 117 104 84 87 82 88 104 122 132 133 137 137 136 140 146 157 170 177 185 195 193 191 194 197 191 197 193 197 196 200 203 204 200 194 194 201 201 193 202 199 208 205
208 185 197 214 209 193 156 128 111 97 93 95 100 106 110 110 106 96 94 103 116 128 147 167 188 188 196 202 209 206 208 204 205 202 201 203 205 207 205 209 208 208 205 199 206 207 196 204 207
186 186 189 186 168 168 158 137 134 109 114 117 114 106 93 85 78 71 63 60 61 71 100 161 194 194 202 204 214 218 218 216 216 210 209 209 212 211 208 212 213 217 213 212 207 207 199 207 208
198 191 170 163 164 162 161 148 129 125 139 136 125 107 90 77 69 57 51 40 34 30 15 316 225 215 223 224 224 224 227 222 222 218 215 215 218 215 215 217 217 220 216 211 213 208 205 202 198
194 193 169 147 163 170 209 164 130 143 155 140 126 112 97 77 64 50 42 34 27 19 10 343 288 241 233 238 239 235 231 225 222 220 215 216 221 219 218 221 222 219 217 210 209 208 204 198 192
190 188 164 146 157 177 215 148 134 152 158 146 134 120 105 84 60 46 37 33 26 20 15 7 343 281 249 241 239 240 235 233 229 225 223 221 226 227 225 225 222 220 218 215 215 205 201 192 184
172 170 167 156 147 188 188 143 138 152 158 148 137 120 101 79 57 42 33 31 29 26 20 14 6 347 289 244 231 233 235 233 231 224 228 234 233 231 230 231 225 225 223 218 216 208 200 189 174
170 178 163 134 141 184 167 150 146 154 162 153 147 131 110 83 62 46 37 31 30 27 21 15 8 360 341 291 251 236 237 239 227 222 227 235 240 239 236 239 232 230 228 220 210 205 198 190 167
200 190 159 137 137 179 161 158 153 162 163 153 147 132 113 90 66 47 37 31 27 23 17 13 7 359 346 330 292 267 268 252 244 240 228 241 243 248 243 236 232 227 228 222 211 197 202 197 188
201 207 173 152 150 170 182 188 179 166 163 154 143 124 100 80 58 46 35 27 24 22 15 11 6 358 352 339 296 261 239 236 234 246 244 261 260 249 241 240 237 234 231 228 216 208 209 203 201
183 177 194 184 205 189 218 241 176 175 183 178 166 149 119 90 68 49 36 28 22 17 14 14 11 10 6 357 341 305 267 257 277 290 284 286 303 275 244 244 235 235 234 232 225 217 216 207 203
137 156 207 216 233 235 214 262 168 175 200 190 177 162 135 109 82 63 45 32 24 18 18 19 20 22 16 11 8 349 332 316 321 334 323 281 315 333 330 296 256 243 240 235 230 223 218 213 209
159 178 193 220 231 236 224 263 221 175 206 178 167 160 145 124 98 77 60 44 33 27 30 28 27 29 25 21 21 21 21 23 42 30 351 357 39 34 24 9 343 294 264 242 229 223 215 214 214
212 231 225 219 223 231 160 259 291 106 119 162 162 157 147 131 108 85 62 46 36 33 32 32 33 32 29 28 28 27 31 37 43 35 26 29 40 35 25 25 23 4 327 284 236 206 214 209 208
220 250 264 268 259 242 182 250 103 110 117 133 143 145 144 133 109 87 68 53 42 38 34 34 37 37 35 35 34 37 40 41 49 46 45 43 42 36 35 41 39 33 23 21 88 120 137 166 177
221 244 300 278 271 273 245 188 149 147 154 151 147 148 148 133 114 95 78 62 51 43 37 37 40 43 42 43 45 47 49 52 56 55 52 50 46 45 45 48 48 44 42 44 65 78 82 87 95
282 243 245 261 275 271 256 243 226 180 185 173 169 163 152 139 121 101 83 68 58 52 49 47 48 50 51 51 53 56 52 51 55 59 56 53 51 49 52 53 50 49 50 54 62 71 75 87 85
201 215 257 270 285 286 289 313 61 132 179 179 174 165 156 146 130 115 99 82 73 67 62 59 56 57 56 55 56 59 57 56 57 59 58 54 55 54 55 54 53 51 51 58 68 73 77 85 86
247 252 251 269 272 271 288 309 93 106 161 170 162 155 149 141 132 123 109 98 87 77 70 66 63 63 62 63 65 64 61 60 62 63 61 60 59 58 60 62 61 58 58 62 72 77 80 83 86
Height
1520 1523 1526 1527 1521 1514 1506 1502 1503 1505 1505 1507 1509 1508 1506 1506 1508 1516 1519 1518 1520 1522 1524 1527 1531 1534 1538 1541 1544 1547 1549 1552 1554 1556 1558 1560 1562 1564 1566 1567 1569 1570 1572 1573 1574 1576 1577 1578 1578
1521 1523 1526 1523 1514 1510 1504 1500 1504 1504 1507 1509 1509 1509 1508 1509 1514 1517 1517 1519 1521 1524 1526 1528 1532 1535 1539 1542 1545 1548 1550 1553 1555 1557 1559 1561 1563 1565 1567 1568 1570 1571 1573 1574 1575 1576 1577 1578 1579
1520 1523 1523 1515 1509 1503 1500 1501 1503 1506 1508 1509 1507 1508 1509 1513 1516 1518 1518 1520 1523 1526 1528 1530 1533 1536 1540 1543 1546 1549 1551 1554 1556 1558 1560 1562 1564 1566 1567 1569 1570 1572 1573 1574 1576 1577 1578 1579 1580
1522 1523 1520 1512 1505 1500 1500 1502 1505 1505 1506 1507 1507 1508 1512 1517 1518 1519 1519 1522 1525 1528 1530 1532 1535 1538 1541 1544 1547 1550 1552 1555 1557 1559 1561 1563 1565 1566 1568 1569 1571 1572 1573 1575 1576 1577 1578 1580 1580
1520 1517 1512 1507 1502 1501 1503 1505 1506 1503 1504 1506 1506 1507 1514 1518 1518 1519 1520 1524 1527 1530 1532 1533 1537 1540 1543 1546 1548 1551 1553 1556 1558 1560 1562 1563 1565 1567 1568 1570 1571 1572 1574 1575 1576 1577 1579 1580 1581
1517 1511 1507 1503 1501 1502 1503 1505 1505 1502 1502 1504 1505 1508 1516 1519 1519 1521 1523 1526 1529 1532 1534 1534 1538 1541 1544 1547 1550 1552 1554 1556 1558 1560 1562 1564 1565 1567 1568 1570 1571 1573 1574 1575 1576 1577 1579 1580 1581
1513 1506 1500 1498 1501 1502 1503 1505 1504 1501 1501 1504 1505 1508 1516 1519 1521 1523 1525 1528 1531 1533 1535 1536 1539 1542 1545 1548 1550 1552 1555 1556 1558 1560 1562 1564 1566 1567 1569 1570 1571 1572 1574 1575 1576 1577 1579 1580 1581
1511 1505 1501 1500 1501 1501 1503 1504 1505 1503 1504 1507 1507 1507 1514 1519 1521 1523 1526 1529 1531 1534 1536 1538 1541 1544 1546 1548 1550 1553 1555 1557 1559 1561 1562 1564 1565 1567 1568 1570 1571 1572 1573 1574 1576 1577 1578 1580 1581
1513 1505 1500 1500 1501 1501 1503 1503 1505 1506 1506 1508 1510 1511 1515 1518 1521 1524 1527 1529 1532 1534 1537 1539 1542 1544 1547 1549 1550 1552 1554 1556 1558 1560 1562 1564 1565 1567 1568 1569 1570 1572 1573 1574 1575 1576 1578 1579 1580
1509 1501 1499 1502 1502 1502 1503 1504 1505 1504 1505 1508 1512 1515 1517 1519 1523 1525 1527 1529 1532 1534 1537 1539 1542 1544 1547 1549 1550 1552 1554 1555 1558 1560 1561 1563 1565 1567 1568 1568 1570 1571 1572 1573 1574 1575 1577 1579 1581
1505 1500 1502 1505 1505 1505 1504 1505 1506 1503 1505 1510 1513 1516 1519 1521 1524 1526 1528 1530 1532 1534 1536 1539 1541 1543 1546 1548 1549 1551 1553 1554 1556 1558 1559 1562 1564 1565 1567 1567 1568 1569 1571 1572 1573 1574 1576 1579 1581
1505 1504 1505 1505 1507 1506 1505 1506 1507 1508 1512 1514 1516 1518 1520 1522 1524 1526 1528 1531 1533 1534 1536 1538 1540 1541 1544 1546 1548 1549 1551 1553 1555 1556 1558 1560 1561 1563 1565 1565 1567 1568 1570 1571 1573 1574 1576 1578 1579
1504 1504 1506 1506 1506 1506 1507 1508 1510 1513 1515 1516 1518 1520 1521 1523 1525 1527 1529 1531 1532 1534 1535 1537 1538 1540 1541 1543 1545 1547 1549 1550 1552 1553 1555 1557 1559 1560 1562 1563 1565 1567 1568 1569 1571 1573 1573 1575 1577
1502 1503 1504 1504 1505 1507 1507 1508 1511 1515 1517 1518 1519 1521 1523 1525 1526 1528 1529 1530 1531 1533 1534 1536 1536 1538 1539 1541 1543 1545 1547 1548 1550 1551 1552 1554 1556 1557 1559 1560 1561 1564 1566 1568 1569 1570 1571 1572 1574
1503 1502 1500 1502 1503 1505 1506 1508 1512 1517 1518 1519 1521 1523 1525 1526 1527 1528 1529 1530 1531 1532 1533 1534 1535 1536 1537 1539 1541 1542 1544 1545 1546 1548 1549 1550 1552 1553 1555 1557 1558 1560 1562 1564 1565 1567 1568 1569 1571
1499 1497 1497 1500 1501 1504 1504 1506 1514 1517 1518 1519 1521 1524 1526 1527 1528 1528 1529 1529 1530 1531 1531 1532 1533 1534 1535 1536 1538 1540 1541 1542 1543 1544 1545 1547 1548 1549 1551 1553 1555 1556 1558 1560 1561 1563 1564 1566 1568
1494 1493 1494 1499 1500 1501 1500 1504 1514 1517 1518 1520 1523 1525 1527 1528 1529 1529 1529 1529 1529 1529 1530 1530 1531 1532 1533 1534 1535 1536 1537 1538 1540 1541 1542 1542 1543 1544 1546 1548 1550 1552 1554 1555 1557 1559 1561 1562 1564
1494 1491 1495 1497 1500 1499 1499 1505 1514 1518 1519 1521 1524 1526 1527 1529 1529 1529 1528 1528 1529 1528 1528 1529 1529 1530 1530 1531 1532 1533 1534 1534 1536 1537 1537 1538 1539 1540 1542 1543 1544 1547 1549 1550 1552 1554 1556 1558 1560
1493 1493 1495 1498 1500 1499 1501 1507 1513 1518 1519 1521 1524 1526 1528 1529 1530 1530 1529 1529 1528 1528 1527 1527 1527 1527 1528 1529 1529 1530 1531 1532 1532 1533 1534 1535 1536 1537 1538 1539 1540 1542 1544 1545 1547 1549 1551 1553 1556
1495 1495 1496 1499 1501 1501 1503 1508 1513 1517 1520 1523 1525 1527 1528 1530 1530 1530 1530 1529 1528 1527 1526 1526 1526 1526 1526 1526 1527 1528 1529 1529 1529 1530 1530 1531 1532 1532 1533 1534 1535 1537 1539 1540 1542 1544 1546 1548 1550
1495 1493 1494 1497 1501 1501 1504 1508 1510 1516 1520 1523 1525 1527 1529 1530 1530 1530 1529 1528 1528 1527 1526 1525 1525 1524 1524 1524 1525 1526 1526 1526 1527 1527 1527 1527 1528 1528 1529 1530 1530 1532 1534 1535 1536 1538 1541 1542 1545
1495 1492 1494 1496 1498 1497 1501 1502 1503 1509 1516 1520 1524 1526 1528 1530 1530 1530 1530 1529 1528 1527 1526 1525 1524 1523 1523 1522 1523 1523 1524 1524 1524 1524 1524 1524 1524 1524 1525 1525 1526 1528 1529 1530 1532 1533 1535 1536 1538
1492 1493 1493 1494 1494 1497 1498 1500 1496 1503 1509 1515 1521 1525 1528 1529 1530 1530 1530 1529 1528 1527 1526 1524 1523 1523 1522 1521 1521 1521 1522 1522 1522 1521 1521 1521 1521 1521 1522 1522 1523 1524 1525 1526 1527 1528 1529 1530 1532
1493 1494 1494 1493 1491 1502 1496 1500 1497 1497 1502 1508 1518 1524 1527 1529 1530 1530 1530 1529 1528 1527 1525 1524 1523 1522 1521 1521 1520 1520 1520 1520 1519 1519 1519 1519 1519 1519 1519 1520 1520 1521 1521 1522 1523 1524 1524 1525 1527
1492 1494 1500 1501 1501 1499 1493 1499 1498 1499 1504 1508 1515 1522 1526 1529 1530 1530 1530 1529 1528 1527 1525 1524 1523 1522 1521 1520 1519 1519 1518 1518 1517 1517 1517 1517 1517 1518 1518 1518 1518 1518 1518 1519 1519 1520 1520 1522 1523
1491 1492 1501 1509 1504 1495 1496 1498 1496 1503 1509 1512 1516 1521 1526 1528 1529 1530 1530 1529 1528 1527 1526 1524 1523 1522 1521 1520 1519 1518 1517 1517 1516 1516 1516 1516 1516 1516 1516 1516 1516 1516 1516 1516 1516 1516 1517 1518 1520
1490 1488 1487 1495 1494 1499 1492 1493 1500 1507 1510 1513 1517 1522 1525 1528 1529 1530 1530 1529 1528 1527 1526 1525 1524 1523 1522 1520 1519 1518 1518 1517 1516 1516 1516 1516 1516 1516 1515 1515 1514 1514 1514 1514 1514 1514 1515 1516 1517
1487 1488 1492 1495 1505 1506 1496 1493 1491 1499 1505 1512 1517 1521 1525 1528 1529 1530 1530 1530 1529 1528 1527 1526 1525 1524 1523 1521 1520 1519 1518 1518 1517 1517 1516 1516 1516 1516 1515 1515 1514 1514 1513 1513 1513 1513 1514 1515 1516
1491 1492 1491 1490 1493 1503 1505 1496 1489 1492 1499 1506 1513 1519 1523 1526 1528 1530 1530 1530 1530 1529 1528 1528 1527 1525 1524 1523 1522 1521 1520 1519 1519 1518 1518 1518 1517 1517 1516 1515 1515 1514 1513 1513 1514 1514 1514 1515 1516
1488 1489 1492 1499 1498 1496 1498 1496 1494 1496 1500 1505 1512 1518 1523 1526 1528 1530 1531 1531 1531 1530 1530 1529 1528 1527 1526 1525 1524 1523 1522 1522 1521 1520 1520 1519 1519 1518 1518 1517 1516 1515 1515 1515 1515 1515 1516 1516 1517